This demonstration page uses our WeatherBlox Daily Observations layout. Learn more.

Left ArrowRight Arrow

41.55636, -103.73856

Hourly Observations for August 2, 2021

Temp ( °F °C ) Dew Point ( °F °C ) Humidity (%) Winds ( mph kmh ) Pressure ( in mb ) Visibility ( mi km ) Precip ( " mm )
12:58 am 00:58 Clear 65 18.6 50 9.9 57 57 S 17 28 30.17 1022 10 16 N/A
1:58 am 01:58 Clear 65 18.1 50 9.8 59 59 S 14 22 30.16 1021 10 16 N/A
2:58 am 02:58 Clear 66 19.1 49 9.7 55 55 SSW 13 20 30.15 1021 10 16 N/A
3:58 am 03:58 Clear 62 16.7 50 10 65 65 SSW 15 24 30.15 1021 10 16 N/A
4:58 am 04:58 Clear 61 16.2 50 9.8 66 66 N N/A 30.15 1021 9 14 N/A
5:58 am 05:58 Sunny 60 15.7 49 9.6 67 67 W 5 7 30.16 1021 8 13 N/A
6:58 am 06:58 Sunny 61 16 50 9.8 67 67 WSW 5 7 30.17 1022 9 14 N/A
7:58 am 07:58 Sunny 66 18.9 51 10.7 59 59 N N/A 30.19 1022 9 14 N/A
8:58 am 08:58 Sunny 71 21.4 51 10.7 51 51 NW 3 6 30.17 1022 10 16 N/A
9:58 am 09:58 Sunny 78 25.7 50 10 37 37 NNW 3 6 30.14 1021 10 16 N/A
10:58 am 10:58 Sunny 82 27.8 41 4.9 23 23 SW 7 11 30.12 1020 10 16 N/A
11:58 am 11:58 Sunny 82 27.8 40 4.2 22 22 SSW 3 6 30.11 1020 10 16 N/A
12:58 pm 12:58 Sunny 84 29 37 2.8 19 19 S 3 6 30.09 1019 10 16 N/A
1:58 pm 13:58 Sunny 87 30.7 39 3.7 18 18 S 8 13 30.05 1018 10 16 N/A
2:58 pm 14:58 Sunny 87 30.7 39 3.8 18 18 SE 12 19 30.03 1017 10 16 N/A
3:58 pm 15:58 Sunny 88 31 38 3.5 17 17 E 9 15 30.02 1017 10 16 N/A
4:58 pm 16:58 Hazy 87 30.7 40 4.2 19 19 SE 8 13 30.01 1016 2 3 N/A
5:58 pm 17:58 Hazy 86 30.2 40 4.2 19 19 E 9 15 30.00 1016 5 8 N/A
6:58 pm 18:58 Sunny 82 28 41 5.1 23 23 SSE 14 22 30.01 1016 10 16 N/A
7:58 pm 19:58 Sunny 78 25.4 42 5.5 28 28 SSE 14 22 30.02 1017 10 16 N/A
8:58 pm 20:58 Clear 74 23.6 43 6.2 33 33 SSE 15 24 30.01 1016 10 16 N/A
9:58 pm 21:58 Clear 73 22.9 44 6.7 35 35 S 16 26 30.01 1016 10 16 N/A
10:58 pm 22:58 Mostly Cloudy 73 22.5 44 6.9 37 37 S 16 26 30.01 1016 10 16 N/A
11:58 pm 23:58 Clear 70 21.2 43 6 37 37 S 16 26 30.02 1017 10 16 N/A

Powered by AerisWeather